Pella, IA

9:46 PM CDT on October 18, 2017 (GMT -0500)
Pella Municipal

Weather History for KPEA - November, 2013

Change the Weather History Date:

Thursday, November 21, 2013

  Actual Average (KOXV) Record (KOXV)
Temperature  
Mean Temperature 34 °F -  
Max Temperature 40 °F 46 °F 87 °F (1997)
Min Temperature 27 °F 26 °F 0 °F (1964)
Degree Days  
Heating Degree Days 32    
Moisture  
Dew Point 32 °F    
Average Humidity 96    
Maximum Humidity 99    
Minimum Humidity 90    
Precipitation  
Precipitation 0.00 in - - ()
Sea Level Pressure  
Sea Level Pressure 30.19 in    
Wind  
Wind Speed 6 mph (North)    
Max Wind Speed 15 mph    
Max Gust Speed 21 mph    
Visibility 3 miles    
Events Fog , Rain , Snow    
Averages and records for this station are not official NWS values.
T = Trace of Precipitation, MM = Missing Value Source: NWS Daily Summary

Daily Weather History Graph

Daily Weather History Graph

Search for Another Location

Airport or City:

Trip Planner

Search our weather history database for the weather conditions in past years. The results will help you decide how hot, cold, wet, or windy it might be!

Date:

Astronomy

Nov. 21, 2013 Rise Set
Actual Time 7:07 AM CST 4:47 PM CST
Civil Twilight 6:37 AM CST 5:17 PM CST
Nautical Twilight 6:03 AM CST 5:51 PM CST
Astronomical Twilight 5:30 AM CST 6:24 PM CST
Moon 8:25 PM CST (11/21) 10:14 AM CST (11/21)
Length of Visible Light 10h 40m
Length of Day
9h 39m
Waning Gibbous, 85% of the Moon is Illuminated
Nov 21
Waning Gibbous
Nov 25
Last Quarter
Dec 2
New
Dec 9
First Quarter
Dec 17
Full

Hourly Weather History & Observations

Time (CST) Temp. Windchill Dew Point Humidity Pressure Visibility Wind Dir Wind Speed Gust Speed Precip Events Conditions
12:15 AM 33.3 °F 30.2 °F 32.5 °F 97% 30.03 in 2.0 mi ESE 3.5 mph - N/A   Mist
12:35 AM 33.8 °F 29.6 °F 32.9 °F 96% 30.03 in 1.8 mi ESE 4.6 mph - N/A   Mist
12:55 AM 33.8 °F 30.8 °F 33.1 °F 97% 30.03 in 2.0 mi ESE 3.5 mph - N/A   Clear
1:15 AM 33.8 °F - 33.3 °F 98% 30.03 in 2.5 mi Calm Calm - N/A   Clear
1:35 AM 33.6 °F - 32.9 °F 97% 30.03 in 2.0 mi Calm Calm - N/A   Clear
1:55 AM 32.9 °F - 32.4 °F 98% 30.04 in 1.2 mi Calm Calm - N/A   Mist
2:15 AM 32.9 °F 29.8 °F 32.4 °F 98% 30.04 in 1.5 mi ESE 3.5 mph - N/A   Mist
2:35 AM 33.1 °F 30.0 °F 32.7 °F 99% 30.04 in 1.5 mi ESE 3.5 mph - N/A   Mist
2:55 AM 33.1 °F 30.0 °F 32.7 °F 99% 30.05 in 1.8 mi ESE 3.5 mph - N/A   Mist
3:15 AM 33.6 °F 30.6 °F 32.9 °F 97% 30.05 in 2.0 mi East 3.5 mph - N/A   Mist
3:35 AM 32.7 °F - 32.0 °F 97% 30.05 in 1.2 mi Calm Calm - N/A   Mist
3:55 AM 32.9 °F 29.8 °F 32.2 °F 97% 30.06 in 1.2 mi ENE 3.5 mph - N/A   Mist
4:15 AM 32.7 °F 29.6 °F 32.2 °F 98% 30.06 in 0.5 mi ENE 3.5 mph - N/A Fog Fog
4:35 AM 32.5 °F 29.3 °F 32.0 °F 98% 30.06 in 0.2 mi ENE 3.5 mph - N/A Fog Fog
4:55 AM 32.5 °F 28.1 °F 32.2 °F 99% 30.07 in 0.5 mi NNE 4.6 mph - N/A Fog Fog
5:15 AM 32.4 °F 29.1 °F 32.0 °F 99% 30.07 in 0.5 mi NE 3.5 mph - N/A Fog Fog
5:35 AM 32.9 °F 28.5 °F 32.4 °F 98% 30.07 in 0.8 mi NE 4.6 mph - N/A   Overcast
5:55 AM 33.1 °F 30.0 °F 32.9 °F 99% 30.07 in 1.2 mi NNE 3.5 mph - N/A   Overcast
6:15 AM 33.1 °F 28.7 °F 32.9 °F 99% 30.08 in 1.2 mi NNE 4.6 mph - N/A   Overcast
6:35 AM 33.3 °F 28.9 °F 32.9 °F 99% 30.09 in 1.5 mi NE 4.6 mph - N/A   Overcast
6:55 AM 33.4 °F 30.4 °F 33.1 °F 99% 30.11 in 1.8 mi NE 3.5 mph - N/A   Overcast
7:15 AM 33.3 °F 30.2 °F 32.9 °F 99% 30.12 in 2.0 mi NE 3.5 mph - N/A   Overcast
7:35 AM 33.4 °F 29.1 °F 33.1 °F 99% 30.13 in 1.5 mi NE 4.6 mph - N/A   Overcast
7:55 AM 33.3 °F 27.9 °F 32.9 °F 99% 30.14 in 1.2 mi NNE 5.8 mph - N/A   Overcast
8:15 AM 33.6 °F 29.4 °F 33.1 °F 98% 30.16 in 1.2 mi NNE 4.6 mph - N/A   Overcast
8:35 AM 34.2 °F 31.2 °F 33.8 °F 99% 30.17 in 1.0 mi NNE 3.5 mph - N/A   Overcast
8:55 AM 34.7 °F 29.6 °F 34.2 °F 98% 30.17 in 0.5 mi North 5.8 mph - N/A Fog Fog
9:15 AM 35.1 °F 32.2 °F 34.7 °F 99% 30.17 in 0.2 mi NNE 3.5 mph - N/A Fog Fog
9:35 AM 35.8 °F 33.0 °F 35.4 °F 99% 30.17 in 0.2 mi NE 3.5 mph - N/A Fog Fog
9:55 AM 36.7 °F 32.9 °F 36.5 °F 99% 30.17 in 1.2 mi NE 4.6 mph - N/A   Overcast
10:15 AM 37.8 °F 34.2 °F 37.2 °F 98% 30.17 in 1.8 mi NE 4.6 mph - N/A   Overcast
10:35 AM 38.5 °F 34.1 °F 37.9 °F 98% 30.19 in 2.5 mi NNE 5.8 mph - N/A   Mostly Cloudy
10:55 AM 38.7 °F 35.2 °F 38.3 °F 99% 30.20 in 3.0 mi North 4.6 mph - N/A   Overcast
11:15 AM 39.2 °F 33.6 °F 38.5 °F 97% 30.19 in 4.0 mi NNE 8.1 mph - N/A   Overcast
11:35 AM 39.6 °F 34.7 °F 38.3 °F 95% 30.19 in 4.0 mi North 6.9 mph - N/A   Overcast
11:55 AM 40.1 °F 36.1 °F 38.3 °F 93% 30.19 in 4.0 mi NNE 5.8 mph - N/A   Overcast
12:15 PM 40.1 °F 34.7 °F 37.4 °F 90% 30.18 in 4.0 mi North 8.1 mph - N/A   Overcast
12:35 PM 39.9 °F 35.1 °F 37.4 °F 91% 30.18 in 3.0 mi North 6.9 mph - N/A   Light Drizzle
12:55 PM 39.7 °F 33.7 °F 37.4 °F 91% 30.18 in 3.0 mi North 9.2 mph - N/A   Light Drizzle
1:15 PM 37.0 °F 28.9 °F 35.2 °F 93% 30.17 in 2.5 mi North 12.7 mph - N/A   Overcast
1:35 PM 35.4 °F 27.3 °F 33.8 °F 94% 30.18 in 2.0 mi North 11.5 mph 18.4 mph N/A Rain Light Rain
1:55 PM 34.3 °F 25.5 °F 33.1 °F 95% 30.19 in 2.5 mi NNW 12.7 mph - N/A   Light Drizzle
2:15 PM 33.3 °F 24.6 °F 32.0 °F 95% 30.19 in 3.0 mi North 11.5 mph 17.3 mph N/A Rain Rain
2:35 PM 33.1 °F 24.9 °F 32.0 °F 96% 30.20 in 4.0 mi NNW 10.4 mph - N/A   Light Drizzle
2:55 PM 32.2 °F 22.3 °F 31.1 °F 96% 30.20 in 4.0 mi NNW 13.8 mph 17.3 mph N/A   Light Drizzle
3:15 PM 32.0 °F 23.0 °F 30.6 °F 94% 30.22 in 4.0 mi North 11.5 mph 19.6 mph N/A Rain Rain
3:35 PM 31.5 °F 22.3 °F 29.8 °F 94% 30.22 in 4.0 mi North 11.5 mph 18.4 mph N/A Rain Light Freezing Rain
3:55 PM 30.9 °F 21.2 °F 29.3 °F 94% 30.23 in 3.0 mi North 12.7 mph - N/A   Overcast
4:15 PM 30.7 °F 20.0 °F 29.3 °F 94% 30.24 in 5.0 mi NNW 15.0 mph 18.4 mph N/A   Overcast
4:35 PM 30.6 °F 21.2 °F 29.3 °F 95% 30.26 in 5.0 mi NNW 11.5 mph - N/A   Overcast
4:55 PM 30.2 °F 20.8 °F 28.8 °F 94% 30.26 in 7.0 mi North 11.5 mph - N/A   Overcast
5:15 PM 30.2 °F 20.8 °F 28.8 °F 94% 30.27 in 7.0 mi NNW 11.5 mph 18.4 mph N/A   Overcast
5:35 PM 30.2 °F 20.8 °F 28.8 °F 94% 30.27 in 10.0 mi North 11.5 mph - N/A   Overcast
5:55 PM 29.8 °F 19.8 °F 28.4 °F 94% 30.28 in 10.0 mi NNW 12.7 mph - N/A   Overcast
6:15 PM 29.5 °F 18.4 °F 27.7 °F 93% 30.29 in 10.0 mi North 15.0 mph 20.7 mph N/A   Overcast
6:35 PM 29.7 °F 19.6 °F 28.0 °F 94% 30.30 in 7.0 mi North 12.7 mph 17.3 mph N/A   Overcast
6:55 PM 29.3 °F 18.2 °F 27.5 °F 93% 30.30 in 7.0 mi North 15.0 mph 19.6 mph N/A   Overcast
7:15 PM 29.3 °F 20.2 °F 27.9 °F 94% 30.31 in 7.0 mi North 10.4 mph 17.3 mph N/A   Overcast
7:35 PM 29.3 °F 19.6 °F 27.5 °F 93% 30.31 in 7.0 mi North 11.5 mph 18.4 mph N/A   Overcast
7:55 PM 29.3 °F 19.1 °F 27.9 °F 94% 30.32 in 5.0 mi North 12.7 mph - N/A   Overcast
8:15 PM 29.3 °F 19.6 °F 27.7 °F 94% 30.33 in 5.0 mi NNW 11.5 mph 16.1 mph N/A   Overcast
8:35 PM 29.1 °F 20.6 °F 27.7 °F 94% 30.34 in 5.0 mi NNW 9.2 mph - N/A   Overcast
8:55 PM 28.8 °F 20.2 °F 27.3 °F 94% 30.35 in 4.0 mi NNW 9.2 mph - N/A Snow Light Snow
9:15 PM 28.8 °F 19.5 °F 27.3 °F 94% 30.35 in 3.0 mi NNW 10.4 mph - N/A Snow Light Snow
9:35 PM 28.4 °F 19.1 °F 27.3 °F 96% 30.36 in 1.5 mi NW 10.4 mph - N/A Snow Light Snow
9:55 PM 28.2 °F 18.3 °F 27.1 °F 96% 30.36 in 1.5 mi NNW 11.5 mph 16.1 mph N/A Snow Light Snow
10:15 PM 28.0 °F 17.5 °F 27.0 °F 96% 30.37 in 1.8 mi NNW 12.7 mph - N/A Snow Light Snow
10:35 PM 28.0 °F 18.6 °F 26.8 °F 95% 30.36 in 2.0 mi NNW 10.4 mph - N/A Snow Light Snow
10:55 PM 28.0 °F 17.5 °F 26.8 °F 95% 30.37 in 4.0 mi NNW 12.7 mph 18.4 mph N/A Snow Light Snow
11:15 PM 27.9 °F 17.8 °F 26.6 °F 95% 30.39 in 7.0 mi NNW 11.5 mph - N/A Snow Light Snow
11:35 PM 27.7 °F 17.1 °F 26.4 °F 95% 30.39 in 3.0 mi NNW 12.7 mph - N/A Snow Light Snow
11:55 PM 27.9 °F 16.8 °F 26.4 °F 94% 30.41 in 3.0 mi NNW 13.8 mph - N/A Snow Light Snow